H1 CPF 2 NER 2021 1 8 9 008 01 glonass122 H2 1004103 9122 37139 2021 1 8 0 0 0 2021 1 11 23 45 0 900 1 1 0 0 0 1 H9 10 0 59222 0.00000 0 -1277810.494 -11811259.913 22562651.443 10 0 59222 900.00000 0 1054184.202 -13246582.877 21775341.917 10 0 59222 1800.00000 0 3175508.176 -14774053.664 20565226.121 10 0 59222 2700.00000 0 5045498.564 -16340524.794 18956274.673 10 0 59222 3600.00000 0 6634704.090 -17887710.648 16980114.357 10 0 59222 4500.00000 0 7925822.643 -19354593.738 14675386.451 10 0 59222 5400.00000 0 8914128.574 -20679955.027 12086977.776 10 0 59222 6300.00000 0 9607376.473 -21804923.286 9265140.476 10 0 59222 7200.00000 0 10025189.739 -22675438.471 6264518.148 10 0 59222 8100.00000 0 10197963.068 -23244528.434 3143096.932 10 0 59222 9000.00000 0 10165327.304 -23474306.502 -38899.061 10 0 59222 9900.00000 0 9974242.278 -23337609.165 -3220147.954 10 0 59222 10800.00000 0 9676797.808 -22819207.967 -6339385.924 10 0 59222 11700.00000 0 9327814.225 -21916546.907 -9336558.617 10 0 59222 12600.00000 0 8982341.430 -20639975.649 -12153948.402 10 0 59222 13500.00000 0 8693159.257 -19012468.936 -14737258.377 10 0 59222 14400.00000 0 8508381.713 -17068842.866 -17036634.776 10 0 59222 15300.00000 0 8469263.536 -14854498.657 -19007610.256 10 0 59222 16200.00000 0 8608299.564 -12423743.236 -20611951.793 10 0 59222 17100.00000 0 8947696.044 -9837752.825 -21818398.107 10 0 59222 18000.00000 0 9498278.430 -7162260.242 -22603272.906 10 0 59222 18900.00000 0 10258883.101 -4465058.046 -22950961.910 10 0 59222 19800.00000 0 11216261.250 -1813417.596 -22854243.373 10 0 59222 20700.00000 0 12345502.599 728471.480 -22314463.787 10 0 59222 21600.00000 0 13610965.424 3101936.898 -21341552.801 10 0 59222 22500.00000 0 14967678.299 5256033.850 -19953873.876 10 0 59222 23400.00000 0 16363158.808 7149437.082 -18177910.122 10 0 59222 24300.00000 0 17739576.283 8751934.589 -16047787.902 10 0 59222 25200.00000 0 19036169.908 10045458.310 -13604644.178 10 0 59222 26100.00000 0 20191821.357 11024605.958 -10895847.275 10 0 59222 27000.00000 0 21147673.071 11696629.512 -7974084.353 10 0 59222 27900.00000 0 21849679.823 12080888.691 -4896332.484 10 0 59222 28800.00000 0 22250982.797 12207791.044 -1722733.746 10 0 59222 29700.00000 0 22314002.091 12117263.143 1484602.373 10 0 59222 30600.00000 0 22012155.046 11856818.533 4662843.570 10 0 59222 31500.00000 0 21331123.893 11479306.324 7749698.792 10 0 59222 32400.00000 0 20269615.890 11040439.037 10684673.556 10 0 59222 33300.00000 0 18839581.600 10596208.342 13410288.320 10 0 59222 34200.00000 0 17065881.188 10200302.338 15873232.539 10 0 59222 35100.00000 0 14985413.092 9901637.755 18025429.002 10 0 59222 36000.00000 0 12645743.238 9742114.880 19824985.570 10 0 59222 36900.00000 0 10103294.788 9754692.523 21237014.502 10 0 59222 37800.00000 0 7421177.207 9961865.521 22234303.369 10 0 59222 38700.00000 0 4666748.384 10374608.897 22797825.323 10 0 59222 39600.00000 0 1909014.281 10991831.872 22917080.556 10 0 59222 40500.00000 0 -784023.717 11800362.415 22590264.788 10 0 59222 41400.00000 0 -3347962.633 12775460.030 21824264.405 10 0 59222 42300.00000 0 -5724425.427 13881831.978 20634481.501 10 0 59222 43200.00000 0 -7863223.188 15075107.147 19044495.298 10 0 59222 44100.00000 0 -9724165.073 16303703.083 17085569.371 10 0 59222 45000.00000 0 -11278444.558 17511005.928 14796016.640 10 0 59222 45900.00000 0 -12509548.859 18637770.935 12220436.341 10 0 59222 46800.00000 0 -13413658.356 19624642.947 9408838.877 10 0 59222 47700.00000 0 -13999523.805 20414692.222 6415676.106 10 0 59222 48600.00000 0 -14287830.451 20955861.118 3298795.628 10 0 59222 49500.00000 0 -14310078.674 21203221.547 118338.437 10 0 59222 50400.00000 0 -14107029.947 21120951.223 -3064400.073 10 0 59222 51300.00000 0 -13726784.047 20683948.543 -6188125.685 10 0 59222 52200.00000 0 -13222567.753 19879020.648 -9192697.507 10 0 59222 53100.00000 0 -12650326.455 18705596.397 -12020256.883 10 0 59222 54000.00000 0 -12066217.665 17175934.969 -14616313.975 10 0 59222 54900.00000 0 -11524109.136 15314820.728 -16930773.585 10 0 59222 55800.00000 0 -11073184.091 13158755.422 -18918882.710 10 0 59222 56700.00000 0 -10755751.895 10754678.582 -20542083.436 10 0 59222 57600.00000 0 -10605354.562 8158265.784 -21768756.093 10 0 59222 58500.00000 0 -10645248.049 5431871.493 -22574838.856 10 0 59222 59400.00000 0 -10887322.640 2642197.651 -22944311.682 10 0 59222 60300.00000 0 -11331509.511 -142219.251 -22869534.219 10 0 59222 61200.00000 0 -11965701.172 -2853601.657 -22351429.258 10 0 59222 62100.00000 0 -12766192.731 -5427499.851 -21399505.652 10 0 59222 63000.00000 0 -13698629.538 -7805231.000 -20031717.105 10 0 59222 63900.00000 0 -14719425.417 -9936086.974 -18274156.106 10 0 59222 64800.00000 0 -15777595.480 -11779218.070 -16160585.459 10 0 59222 65700.00000 0 -16816929.145 -13305112.140 -13731813.177 10 0 59222 66600.00000 0 -17778413.308 -14496604.616 -11034920.252 10 0 59222 67500.00000 0 -18602803.634 -15349374.377 -8122354.374 10 0 59222 68400.00000 0 -19233234.129 -15871902.016 -5050906.340 10 0 59222 69300.00000 0 -19617752.100 -16084890.263 -1880589.381 10 0 59222 70200.00000 0 -19711667.807 -16020170.006 1326555.426 10 0 59222 71100.00000 0 -19479615.220 -15719138.330 4507702.071 10 0 59222 72000.00000 0 -18897232.551 -15230796.006 7600503.383 10 0 59222 72900.00000 0 -17952387.639 -14609470.119 10544347.447 10 0 59222 73800.00000 0 -16645893.466 -13912321.734 13281578.442 10 0 59222 74700.00000 0 -14991681.732 -13196748.099 15758654.474 10 0 59222 75600.00000 0 -13016426.643 -12517793.416 17927216.875 10 0 59222 76500.00000 0 -10758635.375 -11925681.310 19745047.970 10 0 59222 77400.00000 0 -8267245.246 -11463576.111 21176897.337 10 0 59222 78300.00000 0 -5599788.855 -11165669.171 22195160.363 10 0 59222 79200.00000 0 -2820206.771 -11055671.297 22780396.674 10 0 59222 80100.00000 0 3598.113 -11145773.941 22921680.100 10 0 59222 81000.00000 0 2802360.429 -11436120.789 22616775.764 10 0 59222 81900.00000 0 5508096.882 -11914809.062 21872143.786 10 0 59222 82800.00000 0 8056685.229 -12558416.971 20702772.630 10 0 59222 83700.00000 0 10390271.556 -13333031.634 19131848.438 10 0 59222 84600.00000 0 12459408.093 -14195730.958 17190269.612 10 0 59222 85500.00000 0 14224835.880 -15096454.590 14916018.518 10 0 59223 0.00000 0 15658842.263 -15980183.605 12353404.436 10 0 59223 900.00000 0 16746141.047 -16789336.549 9552193.277 10 0 59223 1800.00000 0 17484243.526 -17466281.805 6566642.406 10 0 59223 2700.00000 0 17883308.182 -17955861.372 3454457.953 10 0 59223 3600.00000 0 17965479.932 -18207822.894 275694.808 10 0 59223 4500.00000 0 17763748.093 -18179059.622 -2908381.080 10 0 59223 5400.00000 0 17320372.699 -17835567.219 -6036447.952 10 0 59223 6300.00000 0 16684945.144 -17154037.550 -9048281.054 10 0 59223 7200.00000 0 15912163.516 -16123024.473 -11885883.171 10 0 59223 8100.00000 0 15059414.116 -14743633.720 -14494573.740 10 0 59223 9000.00000 0 14184258.111 -13029707.869 -16824018.098 10 0 59223 9900.00000 0 13341926.051 -11007497.425 -18829179.263 10 0 59223 10800.00000 0 12582922.664 -8714829.319 -20471175.839 10 0 59223 11700.00000 0 11950840.267 -6199804.063 -21718030.874 10 0 59223 12600.00000 0 11480471.086 -3519071.779 -22545297.797 10 0 59223 13500.00000 0 11196297.304 -735754.248 -22936551.260 10 0 59223 14400.00000 0 11111422.923 2082905.112 -22883732.413 10 0 59223 15300.00000 0 11226994.154 4868069.719 -22387340.112 10 0 59223 16200.00000 0 11532135.465 7551914.988 -21456461.840 10 0 59223 17100.00000 0 12004407.491 10070204.126 -20108640.634 10 0 59223 18000.00000 0 12610771.323 12364728.279 -18369577.124 10 0 59223 18900.00000 0 13309022.214 14385509.103 -16272668.971 10 0 59223 19800.00000 0 14049635.354 16092670.449 -13858393.315 10 0 59223 20700.00000 0 14777947.884 17457898.457 -11173541.534 10 0 59223 21600.00000 0 15436585.810 18465426.139 -8270319.232 10 0 59223 22500.00000 0 15968032.617 19112498.172 -5205328.005 10 0 59223 23400.00000 0 16317228.944 19409293.789 -2038449.066 10 0 59223 24300.00000 0 16434090.134 19378309.303 1168348.250 10 0 59223 25200.00000 0 16275831.123 19053225.670 4352247.601 10 0 59223 26100.00000 0 15808995.917 18477309.539 7450849.009 10 0 59223 27000.00000 0 15011101.601 17701417.264 10403426.269 10 0 59223 27900.00000 0 13871823.737 16781689.231 13152150.180 10 0 59223 28800.00000 0 12393670.466 15777035.690 15643250.084 10 0 59223 29700.00000 0 10592115.469 14746524.401 17828088.105 10 0 59223 30600.00000 0 8495183.973 13746784.268 19664122.916 10 0 59223 31500.00000 0 6142510.301 12829537.842 21115742.915 10 0 59223 32400.00000 0 3583908.423 12039368.913 22154952.396 10 0 59223 33300.00000 0 877517.861 11411820.267 22761898.131 10 0 59223 34200.00000 0 -1912394.798 10971901.259 22925227.785 10 0 59223 35100.00000 0 -4717884.692 10733066.284 22642275.602 10 0 59223 36000.00000 0 -7469924.005 10696704.310 21919074.631 10 0 59223 36900.00000 0 -10101034.931 10852157.371 20770198.381 10 0 59223 37800.00000 0 -12547851.122 11177263.338 19218438.082 10 0 59223 38700.00000 0 -14753502.661 11639396.309 17294324.680 10 0 59223 39600.00000 0 -16669727.924 12196957.522 15035507.316 10 0 59223 40500.00000 0 -18258627.976 12801251.488 12486002.254 10 0 59223 41400.00000 0 -19493994.621 13398666.882 9695328.035 10 0 59223 42300.00000 0 -20362160.988 13933069.934 6717544.260 10 0 59223 43200.00000 0 -20862343.427 14348310.211 3610212.472 10 0 59223 44100.00000 0 -21006464.099 14590734.846 433298.440 10 0 59223 45000.00000 0 -20818464.517 14611607.601 -2751964.190 10 0 59223 45900.00000 0 -20333140.592 14369333.533 -5884228.820 10 0 59223 46800.00000 0 -19594548.647 13831398.215 -8903189.349 10 0 59223 47700.00000 0 -18654048.671 12975942.201 -11750712.319 10 0 59223 48600.00000 0 -17568065.323 11792906.032 -14371928.538 10 0 59223 49500.00000 0 -16395658.206 10284698.209 -16716265.714 10 0 59223 50400.00000 0 -15196000.434 8466357.472 -18738404.452 10 0 59223 51300.00000 0 -14025868.224 6365200.697 -20399141.138 10 0 59223 52200.00000 0 -12937243.967 4019968.054 -21666142.488 10 0 59223 53100.00000 0 -11975131.106 1479497.217 -22514577.816 10 0 59223 54000.00000 0 -11175671.105 -1199022.705 -22927616.770 10 0 59223 54900.00000 0 -10564641.207 -3952149.611 -22896781.981 10 0 59223 55800.00000 0 -10156396.896 -6712556.404 -22422148.005 10 0 59223 56700.00000 0 -9953305.372 -9411574.004 -21512380.248 10 0 59223 57600.00000 0 -9945696.601 -11981806.583 -20184610.004 10 0 59223 58500.00000 0 -10112337.352 -14359711.793 -18464144.619 10 0 59223 59400.00000 0 -10421411.670 -16488038.927 -16384014.855 10 0 59223 60300.00000 0 -10831969.614 -18318022.386 -13984364.924 10 0 59223 61200.00000 0 -11295785.515 -19811236.689 -11311694.293 10 0 59223 62100.00000 0 -11759548.567 -20941032.605 -8417963.999 10 0 59223 63000.00000 0 -12167293.097 -21693491.035 -5359583.832 10 0 59223 63900.00000 0 -12462964.292 -22067851.485 -2196300.302 10 0 59223 64800.00000 0 -12593008.078 -22076394.684 1009991.725 10 0 59223 65700.00000 0 -12508871.748 -21743782.807 4196488.335 10 0 59223 66600.00000 0 -12169305.210 -21105884.889 7300739.502 10 0 59223 67500.00000 0 -11542360.960 -20208138.068 10261907.473 10 0 59223 68400.00000 0 -10607004.116 -19103516.142 13021992.332 10 0 59223 69300.00000 0 -9354261.182 -17850194.496 15526997.198 10 0 59223 70200.00000 0 -7787856.839 -16509013.761 17728007.317 10 0 59223 71100.00000 0 -5924310.938 -15140853.146 19582159.758 10 0 59223 72000.00000 0 -3792491.922 -13804027.683 21053483.435 10 0 59223 72900.00000 0 -1432646.784 -12551821.738 22113592.843 10 0 59223 73800.00000 0 1105049.713 -11430264.080 22742222.765 10 0 59223 74700.00000 0 3762363.219 -10476238.267 22927595.130 10 0 59223 75600.00000 0 6475204.904 -9716006.523 22666613.302 10 0 59223 76500.00000 0 9176079.415 -9164206.621 21964882.859 10 0 59223 77400.00000 0 11796672.275 -8823360.471 20836561.591 10 0 59223 78300.00000 0 14270468.717 -8683910.936 19304044.708 10 0 59223 79200.00000 0 16535295.723 -8724781.091 17397494.273 10 0 59223 80100.00000 0 18535683.325 -8914428.389 15154224.467 10 0 59223 81000.00000 0 20224949.737 -9212346.027 12617956.562 10 0 59223 81900.00000 0 21566927.103 -9570945.841 9837959.275 10 0 59223 82800.00000 0 22537259.878 -9937742.130 6868091.877 10 0 59223 83700.00000 0 23124225.775 -10257744.190 3765768.451 10 0 59223 84600.00000 0 23329048.791 -10475957.616 590862.589 10 0 59223 85500.00000 0 23165694.307 -10539890.725 -2595427.529 10 0 59224 0.00000 0 22660157.108 -10401962.875 -5731733.551 10 0 59224 900.00000 0 21849273.076 -10021715.393 -8757671.219 10 0 59224 1800.00000 0 20779104.651 -9367735.611 -11614973.635 10 0 59224 2700.00000 0 19502965.978 -8419213.059 -14248585.593 10 0 59224 3600.00000 0 18079168.831 -7167065.430 -16607699.513 10 0 59224 4500.00000 0 16568580.664 -5614585.724 -18646715.628 10 0 59224 5400.00000 0 15032093.970 -3777582.761 -20326109.847 10 0 59224 6300.00000 0 13528109.748 -1684006.504 -21613193.995 10 0 59224 7200.00000 0 12110137.633 626929.566 -22482754.403 10 0 59224 8100.00000 0 10824611.115 3106096.806 -22917556.532 10 0 59224 9000.00000 0 9709008.132 5696219.100 -22908704.966 10 0 59224 9900.00000 0 8790355.767 8333990.993 -22455850.082 10 0 59224 10800.00000 0 8084182.740 10952462.548 -21567234.959 10 0 59224 11700.00000 0 7593965.631 13483595.242 -20259578.527 10 0 59224 12600.00000 0 7311094.867 15860884.795 -18557793.832 10 0 59224 13500.00000 0 7215364.982 18021942.779 -16494543.328 10 0 59224 14400.00000 0 7275971.539 19910928.963 -14109636.486 10 0 59224 15300.00000 0 7452975.283 21480731.077 -11449278.651 10 0 59224 16200.00000 0 7699173.374 22694798.223 -8565183.704 10 0 59224 17100.00000 0 7962299.113 23528547.800 -5513566.689 10 0 59224 18000.00000 0 8187456.304 23970283.416 -2354036.198 10 0 59224 18900.00000 0 8319683.039 24021582.178 851590.777 10 0 59224 19800.00000 0 8306533.011 23697132.736 4040526.239 10 0 59224 20700.00000 0 8100560.962 23024029.739 7150273.567 10 0 59224 21600.00000 0 7661602.509 22040554.613 10119886.768 10 0 59224 22500.00000 0 6958747.479 20794495.556 12891198.299 10 0 59224 23400.00000 0 5971919.506 19341080.196 15409987.849 10 0 59224 24300.00000 0 4692992.266 17740611.533 17627066.260 10 0 59224 25200.00000 0 3126393.543 16055910.542 19499251.118 10 0 59224 26100.00000 0 1289171.248 14349676.816 20990213.610 10 0 59224 27000.00000 0 -789480.659 12681881.358 22071179.809 10 0 59224 27900.00000 0 -3069214.831 11107303.127 22721473.474 10 0 59224 28800.00000 0 -5499997.806 9673313.641 22928891.328 10 0 59224 29700.00000 0 -8023988.032 8418001.944 22689905.912 10 0 59224 30600.00000 0 -10577743.882 7368716.584 22009694.894 10 0 59224 31500.00000 0 -13094667.623 6541082.620 20901999.366 10 0 59224 32400.00000 0 -15507582.569 5938530.812 19388817.023 10 0 59224 33300.00000 0 -17751336.064 5552354.280 17499939.041 10 0 59224 34200.00000 0 -19765320.944 5362285.741 15272342.192 10 0 59224 35100.00000 0 -21495812.620 5337566.994 12749449.927 10 0 59224 36000.00000 0 -22898027.357 5438462.340 9980278.057 10 0 59224 36900.00000 0 -23937819.479 5618149.961 7018482.281 10 0 59224 37800.00000 0 -24592950.486 5824910.518 3921325.925 10 0 59224 38700.00000 0 -24853880.850 6004520.748 748587.147 10 0 59224 39600.00000 0 -24724054.582 6102752.327 -2438574.499 10 0 59224 40500.00000 0 -24219667.224 6067872.537 -5578772.064 10 0 59224 41400.00000 0 -23368928.439 5853043.717 -8611545.731 10 0 59224 42300.00000 0 -22210850.465 5418522.970 -11478497.959 10 0 59224 43200.00000 0 -20793612.364 4733571.674 -14124389.994 10 0 59224 44100.00000 0 -19172566.720 3777996.091 -16498181.172 10 0 59224 45000.00000 0 -17407969.541 2543254.966 -18553993.246 10 0 59224 45900.00000 0 -15562525.135 1033087.119 -20251983.189 10 0 59224 46800.00000 0 -13698845.153 -736369.045 -21559109.063 10 0 59224 47700.00000 0 -11876924.854 -2736972.020 -22449774.921 10 0 59224 48600.00000 0 -10151739.286 -4929477.036 -22906342.296 10 0 59224 49500.00000 0 -8571057.932 -7264906.338 -22919497.555 10 0 59224 50400.00000 0 -7173568.352 -9686337.565 -22488466.310 10 0 59224 51300.00000 0 -5987387.451 -12131040.418 -21621068.323 10 0 59224 52200.00000 0 -5029023.969 -14532876.698 -20333608.821 10 0 59224 53100.00000 0 -4302837.832 -16824866.664 -18650604.873 10 0 59224 54000.00000 0 -3801021.709 -18941816.520 -16604348.664 10 0 59224 54900.00000 0 -3504108.432 -20822897.686 -14234312.729 10 0 59224 55800.00000 0 -3381985.567 -22414068.942 -11586405.925 10 0 59224 56700.00000 0 -3395376.355 -23670237.780 -8712092.479 10 0 59224 57600.00000 0 -3497725.421 -24557067.213 -5667390.149 10 0 59224 58500.00000 0 -3637409.350 -25052348.496 -2511767.040 10 0 59224 59400.00000 0 -3760176.974 -25146878.526 693040.275 10 0 59224 60300.00000 0 -3811713.252 -24844801.956 3884262.227 10 0 59224 61200.00000 0 -3740214.394 -24163401.532 6999358.073 10 0 59224 62100.00000 0 -3498860.778 -23132344.699 9977275.998 10 0 59224 63000.00000 0 -3048078.427 -21792418.719 12759683.172 10 0 59224 63900.00000 0 -2357489.225 -20193809.481 15292138.089 10 0 59224 64800.00000 0 -1407463.964 -18393999.305 17525179.248 10 0 59224 65700.00000 0 -190210.308 -16455375.735 19415306.611 10 0 59224 66600.00000 0 1289651.333 -14442655.543 20925835.220 10 0 59224 67500.00000 0 3015048.155 -12420235.512 22027604.008 10 0 59224 68400.00000 0 4956952.032 -10449583.683 22699526.654 10 0 59224 69300.00000 0 7075390.425 -8586781.927 22928975.278 10 0 59224 70200.00000 0 9320926.287 -6880322.823 22711991.862 10 0 59224 71100.00000 0 11636542.599 -5369251.710 22053326.095 10 0 59224 72000.00000 0 13959850.475 -4081729.073 20966302.010 10 0 59224 72900.00000 0 16225527.147 -3034069.664 19472519.119 10 0 59224 73800.00000 0 18367881.453 -2230294.124 17601396.766 10 0 59224 74700.00000 0 20323440.134 -1662207.201 15389573.075 10 0 59224 75600.00000 0 22033448.476 -1309994.620 12880172.149 10 0 59224 76500.00000 0 23446183.334 -1143309.504 10121955.052 10 0 59224 77400.00000 0 24518984.959 -1122799.562 7168371.753 10 0 59224 78300.00000 0 25219926.324 -1202008.704 4076532.365 10 0 59224 79200.00000 0 25529053.710 -1329572.209 906116.887 10 0 59224 80100.00000 0 25439149.992 -1451613.297 -2281756.679 10 0 59224 81000.00000 0 24955991.400 -1514241.426 -5425685.759 10 0 59224 81900.00000 0 24098088.827 -1466049.083 -8465138.160 10 0 59224 82800.00000 0 22895925.285 -1260504.311 -11341588.606 10 0 59224 83700.00000 0 21390721.045 -858140.626 -13999617.592 10 0 59224 84600.00000 0 19632776.598 -228454.165 -16387953.952 10 0 59224 85500.00000 0 17679460.305 648570.413 -18460443.296 10 0 59225 0.00000 0 15592921.676 1781369.057 -20176925.711 10 0 59225 900.00000 0 13437622.099 3166189.700 -21504007.394 10 0 59225 1800.00000 0 11277782.653 4786992.200 -22415711.676 10 0 59225 2700.00000 0 9174852.381 6615866.482 -22893997.465 10 0 59225 3600.00000 0 7185099.553 8613953.502 -22929133.928 10 0 59225 4500.00000 0 5357425.374 10732836.574 -22519922.587 10 0 59225 5400.00000 0 3731490.468 12916349.235 -21673760.204 10 0 59225 6300.00000 0 2336233.013 15102728.834 -20406538.180 10 0 59225 7200.00000 0 1188842.017 17227029.485 -18742377.060 10 0 59225 8100.00000 0 294230.985 19223696.123 -16713197.742 10 0 59225 9000.00000 0 -354963.343 21029193.186 -14358134.345 10 0 59225 9900.00000 0 -777854.401 22584577.470 -11722797.292 10 0 59225 10800.00000 0 -1004271.341 23837905.634 -8858398.795 10 0 59225 11700.00000 0 -1073258.909 24746372.465 -5820756.569 10 0 59225 12600.00000 0 -1031174.653 25278086.398 -2669195.170 10 0 59225 13500.00000 0 -929464.884 25413403.793 534632.557 10 0 59225 14400.00000 0 -822215.755 25145762.168 3727978.900 10 0 59225 15300.00000 0 -763586.429 24481974.387 6848262.458 10 0 59225 16200.00000 0 -805237.195 23441969.691 9834328.985 10 0 59225 17100.00000 0 -993865.927 22057991.944 12627683.607 10 0 59225 18000.00000 0 -1368961.531 20373289.834 15173666.645 10 0 59225 18900.00000 0 -1960873.230 18440356.252 17422547.026 10 0 59225 19800.00000 0 -2789280.213 16318793.834 19330509.572 10 0 59225 20700.00000 0 -3862127.932 14072899.875 20860515.359 10 0 59225 21600.00000 0 -5175076.393 11769075.338 21983018.028 10 0 59225 22500.00000 0 -6711482.972 9473169.457 22676522.669 10 0 59225 23400.00000 0 -8442918.725 7247873.154 22927977.892 10 0 59225 24300.00000 0 -10330194.231 5150271.021 22732995.776 10 0 59225 25200.00000 0 -12324849.306 3229653.547 22095898.199 10 0 59225 26100.00000 0 -14371041.657 1525679.048 21029591.773 10 0 59225 27000.00000 0 -16407753.402 66958.824 19555276.926 10 0 59225 27900.00000 0 -18371221.955 -1129879.546 17701999.716 10 0 59225 28800.00000 0 -20197493.247 -2060616.243 15506057.646 10 0 59225 29700.00000 0 -21824991.309 -2733337.801 13010273.029 10 0 59225 30600.00000 0 -23196998.501 -3167819.025 10263149.346 10 0 59225 31500.00000 0 -24263945.137 -3394418.033 7317927.709 10 0 59225 32400.00000 0 -24985415.877 -3452533.758 4231561.697 10 0 59225 33300.00000 0 -25331792.256 -3388692.461 1063629.718 10 0 59225 34200.00000 0 -25285465.845 -3254344.267 -2124795.230 10 0 59225 35100.00000 0 -24841574.114 -3103461.881 -5272298.375 10 0 59225 36000.00000 0 -24008230.249 -2990041.040 -8318278.483 10 0 59225 36900.00000 0 -22806238.439 -2965605.769 -11204085.753 10 0 59225 37800.00000 0 -21268306.548 -3076821.042 -13874122.964 10 0 59225 38700.00000 0 -19437787.967 -3363310.987 -16276891.234 10 0 59225 39600.00000 0 -17367003.041 -3855772.565 -18365962.513 10 0 59225 40500.00000 0 -15115207.177 -4574463.014 -20100862.135 10 0 59225 41400.00000 0 -12746286.707 -5528124.689 -21447845.919 10 0 59225 42300.00000 0 -10326274.885 -6713393.665 -22380557.590 10 0 59225 43200.00000 0 -7920787.742 -8114719.419 -22880553.963 10 0 59225 44100.00000 0 -5592483.488 -9704802.521 -22937686.950 10 0 59225 45000.00000 0 -3398648.935 -11445536.293 -22550333.411 10 0 59225 45900.00000 0 -1389012.190 -13289417.760 -21725466.037 10 0 59225 46800.00000 0 396127.434 -15181373.509 -20478560.924 10 0 59225 47700.00000 0 1927373.292 -17060928.122 -18833340.237 10 0 59225 48600.00000 0 3187245.703 -18864627.555 -16821351.432 10 0 59225 49500.00000 0 4170691.850 -20528617.856 -14481387.810 10 0 59225 50400.00000 0 4885067.190 -21991271.436 -11858758.771 10 0 59225 51300.00000 0 5349586.762 -23195749.628 -9004421.795 10 0 59225 52200.00000 0 5594267.665 -24092391.457 -5973991.747 10 0 59225 53100.00000 0 5658406.362 -24640824.749 -2826646.820 10 0 59225 54000.00000 0 5588655.467 -24811706.721 376046.657 10 0 59225 54900.00000 0 5436782.894 -24588016.764 3571365.552 10 0 59225 55800.00000 0 5257210.962 -23965843.317 6696690.414 10 0 59225 56700.00000 0 5104443.382 -22954629.082 9690767.044 10 0 59225 57600.00000 0 5030493.373 -21576862.749 12494940.818 10 0 59225 58500.00000 0 5082426.242 -19867230.164 15054335.982 10 0 59225 59400.00000 0 5300124.470 -17871261.894 17318953.753 10 0 59225 60300.00000 0 5714373.206 -15643536.336 19244665.392 10 0 59225 61200.00000 0 6345349.234 -13245516.897 20794079.305 10 0 59225 62100.00000 0 7201578.242 -10743117.266 21937264.820 10 0 59225 63000.00000 0 8279404.099 -8204099.775 22652319.105 10 0 59225 63900.00000 0 9562991.092 -5695418.174 22925767.620 10 0 59225 64800.00000 0 11024856.842 -3280617.191 22752792.611 10 0 59225 65700.00000 0 12626910.813 -1017397.503 22137287.963 10 0 59225 66600.00000 0 14321952.007 1044553.501 21091742.447 10 0 59225 67500.00000 0 16055560.519 2865377.265 19636956.771 10 0 59225 68400.00000 0 17768301.807 4416433.926 17801602.868 10 0 59225 69300.00000 0 19398150.244 5681212.860 15621636.566 10 0 59225 70200.00000 0 20883030.416 6655730.795 13139577.116 10 0 59225 71100.00000 0 22163370.725 7348405.693 10403668.901 10 0 59225 72000.00000 0 23184564.174 7779416.020 7466942.401 10 0 59225 72900.00000 0 23899235.882 7979575.866 4386192.612 10 0 59225 73800.00000 0 24269225.350 7988775.679 1220894.055 10 0 59225 74700.00000 0 24267203.547 7854055.395 -1967927.790 10 0 59225 75600.00000 0 23877859.941 7627391.119 -5118848.612 10 0 59225 76500.00000 0 23098612.055 7363287.506 -8171200.874 10 0 59225 77400.00000 0 21939809.273 7116275.308 -11066212.976 10 0 59225 78300.00000 0 20424422.771 6938417.049 -13748112.623 10 0 59225 79200.00000 0 18587233.770 6876923.273 -16165175.722 10 0 59225 80100.00000 0 16473552.191 6971977.322 -18270702.897 10 0 59225 81000.00000 0 14137516.369 7254858.440 -20023906.862 10 0 59225 81900.00000 0 11640041.107 7746441.293 -21390695.099 10 0 59225 82800.00000 0 9046495.667 8456135.255 -22344333.514 10 0 59225 83700.00000 0 6424204.318 9381309.547 -22865978.430 10 0 59225 84600.00000 0 3839869.736 10507231.082 -22945065.885 10 0 59225 85500.00000 0 1357023.530 11807521.243 -22579549.154 99